Weather History for KBLH - February, 2013

Change the Weather History Date:

Sunday, February 17, 2013

  Actual Average (WUND) Record (WUND)
Temperature  
Mean Temperature 59 °F -  
Max Temperature 75 °F - - (-1)
Min Temperature 43 °F - - (-1)
Degree Days  
Heating Degree Days 6    
Growing Degree Days 9 (Base 50)    
Moisture  
Dew Point 23 °F    
Average Humidity 28    
Maximum Humidity 45    
Minimum Humidity 13    
Precipitation  
Precipitation 0.00 in - - ()
Sea Level Pressure  
Sea Level Pressure 29.87 in    
Wind  
Wind Speed 3 mph (SSE)    
Max Wind Speed 13 mph    
Max Gust Speed -    
Visibility 10 miles    
Events      
Averages and records for this station are not official NWS values.
T = Trace of Precipitation, MM = Missing Value Source: NWS Daily Summary

Daily Weather History Graph

Daily Weather History Graph

Search for Another Location

Airport or City:

Trip Planner

Search our weather history database for the weather conditions in past years. The results will help you decide how hot, cold, wet, or windy it might be!

Date:

Astronomy

Feb. 17, 2013 Rise Set
Actual Time 6:20 AM PST 5:25 PM PST
Civil Twilight 5:55 AM PST 5:50 PM PST
Nautical Twilight 5:26 AM PST 6:19 PM PST
Astronomical Twilight 4:57 AM PST 6:48 PM PST
Moon 10:39 AM PST (2/17) 12:02 AM PST (2/17)
Length of Visible Light 11h 55m
Length of Day
11h 04m
Waxing Crescent, 50% of the Moon is Illuminated
Feb 17
Waxing Crescent
Feb 17
First Quarter
Feb 25
Full
Mar 4
Last Quarter
Mar 11
New

Hourly Weather History & Observations

Time (PST) Temp. Windchill Dew Point Humidity Pressure Visibility Wind Dir Wind Speed Gust Speed Precip Events Conditions
12:52 AM 52.0 °F - 19.0 °F 27% 29.94 in 10.0 mi Calm Calm - N/A   Clear
1:52 AM 46.9 °F - 21.9 °F 37% 29.92 in 10.0 mi Calm Calm - N/A   Clear
2:52 AM 43.0 °F 39.5 °F 23.0 °F 45% 29.90 in 10.0 mi NNE 5.8 mph - N/A   Clear
3:52 AM 43.0 °F 39.5 °F 21.9 °F 43% 29.90 in 10.0 mi North 5.8 mph - N/A   Clear
4:52 AM 43.0 °F - 21.9 °F 43% 29.89 in 10.0 mi Calm Calm - N/A   Clear
5:52 AM 48.0 °F - 21.0 °F 34% 29.90 in 10.0 mi Calm Calm - N/A   Clear
6:52 AM 46.0 °F - 24.1 °F 42% 29.91 in 10.0 mi Calm Calm - N/A   Clear
7:52 AM 46.9 °F - 24.1 °F 41% 29.92 in 10.0 mi Calm Calm - N/A   Clear
8:52 AM 54.0 °F - 21.0 °F 28% 29.91 in 10.0 mi Calm Calm - N/A   Clear
9:52 AM 59.0 °F - 19.0 °F 21% 29.91 in 10.0 mi Calm Calm - N/A   Clear
10:52 AM 64.0 °F - 18.0 °F 17% 29.89 in 10.0 mi Calm Calm - N/A   Clear
11:52 AM 69.1 °F - 19.0 °F 15% 29.87 in 10.0 mi South 4.6 mph - N/A   Clear
12:52 PM 72.0 °F - 18.0 °F 13% 29.84 in 10.0 mi Calm Calm - N/A   Clear
1:52 PM 73.9 °F - 19.0 °F 13% 29.82 in 10.0 mi Calm Calm - N/A   Clear
3:52 PM 75.9 °F - 21.9 °F 13% 29.80 in 10.0 mi SE 4.6 mph - N/A   Clear
4:52 PM 73.9 °F - 24.1 °F 16% 29.81 in 10.0 mi SE 5.8 mph - N/A   Clear
5:52 PM 68.0 °F - 30.0 °F 24% 29.81 in 10.0 mi ESE 4.6 mph - N/A   Clear
6:52 PM 68.0 °F - 21.9 °F 17% 29.82 in 10.0 mi SW 11.5 mph - N/A   Clear
7:52 PM 66.0 °F - 21.9 °F 19% 29.83 in 10.0 mi WSW 12.7 mph - N/A   Clear
9:52 PM 61.0 °F - 30.9 °F 32% 29.87 in 10.0 mi SSE 10.4 mph - N/A   Clear
10:52 PM 57.9 °F - 30.0 °F 35% 29.88 in 10.0 mi South 10.4 mph - N/A   Clear
11:52 PM 55.9 °F - 28.9 °F 36% 29.90 in 10.0 mi South 9.2 mph - N/A   Clear